Theta_e
337 339 339 340 341 342 342 344 347 348 349 350 351 350 350 351 352 352 354 353 353 352 351 351 349 350 349 348 349 350 350 352 353 351 352 355 358 359 360 359 360 359 359 359 356 363 357 355 356 359 359 359 354 352 353 354 353 352 349 352 340 337 336 331 339 337 335 332 336 336 338 343 353 351 348 349 350 351 354 353 352 353 352 352 354
337 337 338 339 340 341 342 342 347 345 346 348 349 350 349 351 351 352 353 353 352 352 351 351 351 351 349 348 348 350 349 349 352 351 351 354 358 359 361 360 360 359 360 359 358 358 358 357 356 357 358 358 355 354 352 358 357 355 347 342 344 338 332 332 339 331 330 328 328 331 333 334 347 345 346 348 350 352 353 352 352 352 351 351 353
335 336 337 338 339 340 341 341 343 346 346 347 348 349 348 349 350 352 352 352 352 353 352 351 351 353 351 349 349 350 351 351 351 354 354 353 357 359 361 360 360 358 360 360 359 358 357 356 357 356 358 360 357 352 354 352 353 352 345 341 338 335 339 337 335 331 332 333 333 329 324 326 335 338 343 347 350 351 351 351 352 351 351 351 351
333 334 335 337 338 339 340 340 342 345 346 346 347 347 347 349 349 351 352 352 352 354 354 353 352 353 352 352 351 353 351 352 353 354 353 354 357 359 360 360 360 359 360 359 359 359 357 355 356 356 358 361 357 353 352 350 352 349 345 346 336 330 331 329 341 338 338 333 326 325 325 324 322 327 334 341 348 350 350 350 351 350 350 350 350
333 334 335 336 337 338 338 341 342 343 344 345 347 347 347 348 349 351 352 352 352 355 354 353 354 352 352 352 353 352 352 351 349 349 350 354 357 357 359 359 360 359 360 360 360 358 357 356 355 357 359 359 357 355 353 352 353 351 348 347 336 333 334 326 335 344 340 337 335 329 325 322 322 325 333 333 341 344 347 348 351 348 348 347 349
334 334 335 336 337 338 338 340 341 342 343 345 347 348 348 348 350 351 352 352 352 354 354 353 352 350 349 348 347 347 346 346 345 346 347 350 355 358 359 360 359 359 360 360 361 359 357 357 357 357 358 359 358 357 356 354 352 350 350 348 339 339 332 327 334 345 346 350 340 333 329 324 325 328 326 324 338 343 343 345 347 346 346 347 347
335 335 336 336 337 338 338 339 341 341 342 345 347 348 349 348 351 351 352 352 353 354 354 354 351 350 349 349 348 347 346 347 348 348 348 348 355 356 358 359 359 359 360 360 360 360 358 358 357 358 358 359 361 356 355 354 353 351 350 345 340 346 329 328 336 338 337 340 347 346 347 344 336 329 324 325 324 330 337 339 340 338 343 346 346
334 335 335 336 337 338 338 340 341 342 343 345 346 347 348 348 351 351 352 354 354 355 353 354 351 350 349 348 349 347 347 347 348 348 349 350 351 355 357 358 358 359 359 359 359 360 359 358 358 359 359 359 361 357 355 355 353 352 352 346 343 343 331 332 334 337 333 334 343 342 348 344 339 336 331 327 325 324 326 330 334 335 339 344 345
335 335 335 336 337 338 340 340 342 343 343 344 346 347 349 349 352 352 352 353 354 354 353 353 353 350 349 349 348 349 348 348 349 349 348 351 347 352 356 357 357 358 358 359 359 359 361 359 359 359 359 359 363 359 357 356 353 351 348 344 342 340 334 333 335 334 332 332 336 335 337 334 336 339 340 335 329 323 324 326 327 332 334 335 340
336 336 336 336 338 339 341 342 342 343 344 346 346 347 349 349 351 351 351 353 353 353 354 353 352 352 349 348 347 347 349 347 348 347 347 348 346 348 354 355 356 357 358 358 358 358 360 360 359 359 359 360 362 359 358 355 354 351 349 346 343 339 339 339 336 336 335 335 335 334 335 334 330 330 332 331 331 327 323 324 326 327 326 329 335
335 336 336 337 339 340 341 341 342 343 345 345 346 347 348 348 350 350 351 353 353 353 352 352 351 351 349 348 348 346 347 347 346 345 346 348 346 346 351 354 355 355 357 358 358 358 359 361 360 360 360 362 362 359 358 357 355 351 348 346 344 341 339 337 342 339 339 341 336 334 334 333 330 327 329 331 329 326 326 328 330 329 328 327 331
335 336 335 336 336 339 340 340 341 342 344 345 345 346 348 348 349 349 350 351 352 353 352 351 351 351 350 348 348 348 347 348 346 345 346 348 347 345 350 352 353 354 355 357 357 357 359 359 360 360 360 360 360 359 359 358 356 352 347 347 345 343 342 341 339 338 340 341 337 335 334 334 334 331 331 333 332 329 329 325 327 331 329 328 333
335 335 335 335 335 336 338 339 340 341 343 344 345 346 347 348 348 348 349 351 352 352 351 351 350 350 350 349 348 349 347 349 348 346 346 347 349 345 348 350 352 352 353 354 356 357 358 359 359 359 359 360 361 359 358 358 356 352 347 347 345 344 344 339 336 337 341 338 337 337 336 337 336 335 334 335 334 333 331 327 331 332 326 327 330
335 336 336 336 336 337 338 339 340 341 343 344 345 346 346 347 348 347 348 350 351 351 351 350 350 350 350 350 349 350 348 348 350 347 347 347 350 348 348 351 351 353 353 353 356 357 359 360 360 359 360 360 360 359 359 358 356 353 349 347 346 346 345 342 338 337 338 341 339 337 336 336 336 338 337 337 335 335 330 330 328 328 329 327 328
336 336 336 336 337 337 338 340 340 342 343 345 345 346 346 347 347 347 347 348 350 350 350 350 349 350 350 350 350 350 350 349 350 351 349 347 349 351 348 351 352 353 354 354 356 357 358 359 360 359 360 360 361 360 360 359 357 354 352 348 348 348 346 345 340 340 339 339 340 338 338 335 335 337 336 337 335 334 334 331 330 326 325 327 328
335 336 336 337 337 337 339 340 341 342 344 345 345 346 346 346 347 347 347 347 350 350 350 349 349 350 350 349 350 350 352 351 349 351 352 350 349 351 351 351 353 354 355 355 355 357 357 359 359 359 360 360 360 360 359 359 356 354 353 350 347 351 347 345 343 341 340 338 342 341 340 338 336 336 338 336 334 335 335 333 331 327 324 321 323
334 335 336 337 338 338 339 340 341 342 343 344 345 346 346 346 347 347 347 347 348 351 350 349 349 349 349 350 350 350 350 350 349 349 352 353 351 351 352 352 354 355 355 356 355 357 357 358 359 359 360 360 360 360 359 359 357 355 354 352 348 349 349 347 345 342 340 339 338 341 342 341 340 340 339 339 336 335 335 334 333 330 327 323 321
334 336 337 338 338 339 339 340 341 342 344 344 345 346 347 347 347 347 347 346 347 350 350 350 349 349 349 349 350 350 350 351 351 350 352 354 352 351 352 352 353 356 356 357 356 356 356 361 358 358 359 360 361 361 360 359 358 356 354 353 352 350 348 348 347 345 342 340 339 338 340 341 343 342 343 343 339 334 333 334 334 332 331 327 325
334 335 336 337 338 339 339 339 342 343 344 345 346 347 347 347 348 348 347 348 347 348 350 351 350 350 350 350 350 350 351 351 352 352 352 353 354 352 352 353 353 355 357 356 356 356 356 357 358 358 358 360 361 360 360 359 358 357 355 354 353 351 348 346 347 347 345 342 340 338 338 338 341 342 342 343 343 339 332 336 335 335 333 331 329
333 335 336 337 338 339 340 340 341 342 343 345 346 347 346 347 348 347 349 349 349 348 349 350 351 350 350 350 350 351 352 352 352 353 352 353 355 354 353 352 353 355 356 357 357 356 356 356 358 358 358 359 360 360 360 360 359 358 356 354 353 352 350 347 346 348 347 344 342 340 339 338 339 340 341 342 341 342 339 334 337 336 334 332 331
333 335 336 337 338 340 340 341 342 343 344 346 346 346 347 347 347 347 347 348 348 348 348 349 351 351 351 350 350 351 351 352 352 353 353 353 355 356 354 353 353 354 356 357 357 357 356 356 357 358 358 358 358 359 360 359 358 357 357 355 354 352 351 349 348 346 347 345 343 342 341 340 339 339 340 341 341 341 341 337 336 336 335 334 332
334 335 336 337 338 339 340 341 342 343 344 345 346 346 346 347 347 347 348 348 348 349 349 349 350 351 351 350 351 351 352 352 352 353 353 354 354 356 356 354 352 353 356 356 357 357 357 356 356 357 357 358 358 359 359 359 358 358 357 357 355 353 351 350 349 347 346 347 345 343 342 341 341 340 340 340 340 341 341 340 336 336 334 335 335
334 335 337 338 338 339 340 340 341 343 344 344 346 346 346 347 348 348 347 348 349 350 350 350 350 350 351 351 351 351 352 352 352 352 353 354 355 355 357 355 353 353 355 356 357 358 357 357 356 357 357 357 358 358 359 359 358 358 357 357 357 354 352 351 350 348 347 347 345 344 343 343 343 341 341 340 340 340 340 340 339 337 335 334 336
335 336 337 338 338 339 339 339 340 342 343 344 345 346 347 347 348 348 347 348 349 350 351 351 350 350 351 352 351 352 352 352 352 353 353 354 355 355 357 357 355 354 354 355 356 356 357 356 356 356 356 357 357 358 358 359 358 358 358 357 357 356 355 353 352 351 349 347 346 345 344 344 343 342 341 341 341 340 339 339 339 338 336 335 335
334 334 335 336 337 338 339 339 339 341 343 344 345 346 347 347 348 348 348 349 350 351 351 351 351 350 351 351 352 352 352 352 352 353 353 354 355 355 355 356 357 356 355 355 356 356 356 356 355 355 356 356 357 358 358 358 359 359 358 358 358 357 356 355 353 353 355 349 347 346 346 345 343 342 342 341 341 340 340 339 339 338 337 336 336
333 334 334 335 336 338 339 339 340 341 342 343 344 346 347 348 349 350 350 350 350 351 351 351 351 351 351 351 352 352 352 352 353 353 354 355 355 355 355 355 357 356 356 356 355 355 356 356 356 355 356 357 357 358 358 359 359 359 359 358 358 358 357 357 356 354 354 352 349 347 347 346 345 343 342 342 342 341 340 339 338 338 338 337 335
332 334 334 335 336 337 338 339 340 340 342 343 344 345 347 348 349 350 351 351 351 351 351 351 351 351 351 351 351 352 353 353 353 353 355 355 355 356 355 354 355 356 356 356 356 355 355 356 357 357 356 356 357 358 358 359 359 359 359 358 358 358 358 357 357 356 355 354 352 350 348 347 346 345 344 343 342 342 342 340 340 339 339 337 336
332 333 333 333 335 336 337 338 339 340 342 344 345 346 347 348 349 350 352 352 352 352 351 351 351 351 351 351 352 353 353 353 354 354 355 355 356 356 355 355 354 354 355 355 356 355 354 355 356 357 357 356 356 357 358 358 359 359 359 359 359 358 357 357 356 357 356 356 355 353 351 349 348 347 346 344 343 342 342 341 341 340 339 337 336
330 331 332 333 334 335 337 338 339 340 341 344 345 346 348 349 350 351 352 353 353 352 352 351 351 351 351 352 353 353 354 354 354 354 354 355 355 356 356 355 354 353 355 355 355 356 355 353 353 355 357 357 356 356 357 358 358 358 359 358 358 358 358 357 356 356 356 356 356 355 354 352 351 347 339 340 340 338 343 341 341 341 340 338 337
329 330 331 333 334 335 336 338 339 340 341 344 346 346 348 349 350 352 353 354 354 353 352 352 351 351 352 353 353 354 354 354 354 353 354 354 355 355 355 354 354 353 353 354 354 354 354 354 353 352 353 356 357 357 350 339 344 357 357 358 358 358 358 357 356 356 355 355 356 356 357 347 339 338 337 333 331 331 332 341 343 342 341 339 338
329 329 330 332 334 335 336 337 338 339 341 343 346 348 349 350 351 352 353 355 356 354 354 353 352 353 353 353 353 353 353 353 353 354 354 354 354 355 354 354 353 353 352 352 353 352 353 354 354 353 351 352 355 357 341 333 334 337 353 357 357 356 357 357 356 356 355 355 355 356 356 354 344 338 340 332 331 329 329 329 332 335 336 341 339
328 329 329 330 333 334 335 336 337 339 341 342 345 348 350 350 351 352 353 356 357 356 355 354 354 354 354 353 353 353 353 353 353 353 353 353 354 353 353 352 351 351 352 352 351 351 352 353 353 353 353 352 352 342 335 332 332 331 336 356 356 356 356 356 356 356 356 355 355 355 355 356 356 353 351 346 336 330 327 327 328 329 330 331 334
328 328 329 330 333 336 337 338 339 340 341 343 346 348 349 351 352 353 354 356 357 357 357 356 356 356 355 354 353 353 353 353 353 353 353 353 353 352 352 351 350 350 351 351 351 351 350 351 353 352 352 353 353 340 332 330 330 330 329 340 356 355 355 355 356 356 355 355 355 354 354 355 357 346 349 351 350 345 329 324 325 326 327 327 328
328 329 330 331 334 337 339 340 342 344 345 347 349 349 351 353 354 354 354 355 356 357 358 357 357 357 356 355 354 353 353 353 353 353 353 352 352 351 351 352 351 350 349 349 350 350 350 350 351 352 352 353 353 341 330 327 327 327 328 332 353 355 355 355 355 355 356 355 355 354 353 353 354 355 354 352 352 350 348 343 336 334 336 335 327
329 329 331 332 334 336 338 340 343 346 349 350 352 353 353 353 354 354 354 354 355 356 357 358 358 358 358 357 355 354 353 353 353 353 353 352 352 352 351 351 351 349 348 348 349 349 350 350 350 351 351 352 354 337 328 325 324 324 325 327 349 354 355 355 355 356 356 356 356 356 355 354 354 354 355 352 352 351 350 348 346 342 340 340 341
332 333 335 337 337 338 339 340 344 347 349 351 352 355 355 354 355 354 354 354 354 355 356 357 358 358 358 358 357 355 354 354 353 353 352 352 352 352 351 351 351 350 350 349 349 351 351 351 351 350 350 350 353 333 327 324 323 322 324 337 347 351 353 354 354 354 355 356 357 357 356 355 355 355 345 333 338 352 351 349 348 347 345 344 343
336 339 342 344 345 344 344 349 348 348 348 350 352 354 355 355 354 355 354 354 354 353 354 356 357 358 359 359 358 356 355 354 354 353 352 352 352 352 353 353 351 350 349 349 348 350 352 352 352 352 350 350 352 338 325 322 321 321 323 341 346 349 352 353 354 354 355 355 355 356 356 356 356 355 342 332 329 330 350 350 349 348 348 347 346
343 341 342 344 347 350 353 350 349 349 350 351 353 354 354 354 354 354 354 354 353 353 353 355 356 357 359 359 359 358 356 355 354 353 352 352 353 353 353 354 351 350 349 349 350 349 351 353 353 353 353 352 352 343 322 319 319 319 327 344 347 349 350 351 352 354 355 354 355 347 355 356 355 355 337 329 328 331 345 349 350 349 348 347 348
348 347 346 347 348 349 348 345 345 346 348 348 352 353 353 353 354 353 354 353 353 353 353 354 355 357 358 359 360 359 358 356 355 354 354 353 353 353 353 354 353 352 351 351 351 350 350 351 353 354 350 352 354 345 319 319 317 317 327 345 349 349 349 350 351 352 354 354 355 352 345 344 349 347 333 328 325 329 345 348 349 349 348 348 349
352 353 351 351 351 350 352 354 353 348 351 350 347 350 352 352 352 352 352 352 353 354 354 355 356 357 358 359 360 359 358 357 356 356 356 355 354 354 353 353 353 353 351 351 350 350 350 350 351 352 354 355 355 355 332 317 317 316 320 344 350 350 349 350 351 351 352 353 354 355 349 331 326 327 326 323 321 320 341 348 349 348 347 347 351
354 355 359 352 352 352 352 352 352 352 354 352 349 346 347 348 349 349 349 352 353 353 353 355 356 356 357 358 360 359 358 358 358 357 357 356 356 354 353 353 353 353 352 351 350 349 350 350 351 352 352 352 354 355 338 315 315 315 317 327 350 351 352 352 352 351 352 353 353 354 355 339 327 323 321 319 318 316 320 343 349 349 349 349 344
354 360 356 349 350 350 351 352 353 355 354 352 350 352 348 345 344 345 348 350 350 351 352 356 357 356 357 358 359 359 360 359 359 358 357 356 357 356 354 354 354 353 352 351 350 349 349 349 350 351 353 353 356 350 352 318 316 314 316 317 343 352 352 354 353 353 353 353 354 355 356 343 323 317 314 312 310 312 314 326 337 328 328 328 341
346 348 355 352 348 348 350 351 352 353 354 352 348 349 351 352 346 346 348 348 348 350 352 357 357 357 357 357 358 359 358 360 359 359 358 357 357 356 355 354 353 353 353 352 351 351 350 350 352 353 354 355 355 354 339 338 316 314 313 313 322 338 334 351 354 353 353 354 355 355 347 316 309 307 307 308 308 309 311 323 316 316 318 319 322
346 349 351 353 347 346 347 348 349 351 351 353 351 347 349 350 350 354 350 350 349 350 352 356 357 357 357 358 359 360 360 360 360 359 359 358 358 358 357 356 355 354 354 353 353 352 351 350 350 351 355 357 355 350 331 324 327 312 311 310 312 317 313 323 330 337 337 338 341 339 330 312 307 306 307 309 311 311 321 314 313 314 315 317 328
343 345 351 347 345 344 345 346 347 349 350 352 353 349 348 347 346 352 353 351 350 350 351 354 356 357 358 359 360 361 361 361 361 361 359 359 359 359 357 357 356 356 355 354 354 353 352 351 350 350 350 344 337 333 329 320 316 313 313 310 311 313 314 314 330 336 338 339 323 309 306 307 309 309 312 314 317 318 316 313 313 313 317 327 332
345 346 347 345 345 345 344 344 345 346 348 352 352 351 350 351 352 356 357 353 352 351 350 353 356 357 358 360 361 362 362 362 363 363 362 362 361 360 359 358 358 357 356 355 354 354 353 352 351 351 348 331 328 328 329 330 328 323 315 309 311 311 314 313 321 327 318 312 312 314 315 315 316 319 325 326 326 327 317 315 315 317 328 332 333
342 346 347 343 343 342 342 342 342 343 345 348 351 353 353 353 354 355 356 355 353 351 352 353 355 356 357 359 361 362 362 363 363 363 363 363 363 362 360 357 358 358 356 356 355 353 353 353 352 350 332 327 324 323 323 324 325 327 328 324 322 319 312 312 322 327 323 323 322 322 320 315 315 315 316 316 317 320 323 325 327 328 330 332 333
340 343 345 341 340 338 338 339 340 341 344 346 349 351 351 352 355 358 355 355 354 352 352 353 356 357 357 359 360 369 364 361 358 359 359 360 361 363 361 359 358 358 357 356 356 355 354 354 353 334 326 325 323 323 323 323 324 325 325 325 326 326 324 324 320 317 320 322 322 318 319 324 324 324 324 323 323 324 323 323 324 325 325 327 327
339 340 343 339 338 339 337 338 339 340 343 345 347 349 348 348 351 356 351 353 354 354 354 355 357 357 357 358 360 362 354 339 326 318 311 311 313 321 335 336 328 331 359 360 358 357 356 356 344 330 327 324 324 324 323 316 320 316 323 325 324 322 321 319 312 309 320 319 319 320 321 321 321 320 320 320 321 322 323 323 323 324 324 325 325
337 340 339 340 341 337 336 337 336 339 343 344 346 348 348 348 349 353 352 352 353 354 354 355 356 357 357 358 356 351 342 334 328 324 321 319 313 303 306 323 326 319 311 323 334 345 343 337 331 328 329 328 326 326 311 303 302 301 301 304 304 301 305 309 304 307 313 315 315 315 314 316 317 318 319 320 321 322 323 323 324 320 324 324 324
337 337 336 336 336 340 336 338 339 340 341 342 343 345 346 347 348 349 351 349 350 351 351 352 353 354 353 352 347 342 335 331 329 328 327 326 324 319 303 302 308 310 307 305 304 307 314 322 330 325 319 315 315 307 301 301 300 301 301 300 300 299 297 297 301 312 314 314 314 315 316 317 318 317 318 320 323 323 323 323 324 324 325 324 323
Wind_Speed
16 18 18 18 18 16 14 14 16 17 16 17 17 17 16 15 14 14 13 13 12 10 9 10 10 8 8 9 9 8 7 7 6 6 7 7 7 7 7 6 6 6 5 5 5 5 5 4 4 4 5 4 5 5 4 3 2 2 1 1 1 2 3 1 2 5 7 5 5 4 2 2 4 4 5 4 4 4 5 5 4 4 4 4 4
16 15 17 17 16 18 15 13 15 18 16 18 19 18 16 15 15 14 12 13 13 12 10 10 10 10 10 10 7 7 8 7 6 6 7 7 8 8 7 7 7 7 6 5 5 5 4 4 4 5 5 5 5 4 3 3 2 1 1 1 3 1 1 1 2 4 4 4 5 3 3 2 1 3 3 4 5 4 5 5 5 5 5 5 4
17 17 18 18 19 19 16 14 16 19 18 19 19 18 17 15 14 13 13 14 13 13 10 10 9 8 9 7 9 5 5 6 4 5 7 7 8 8 8 7 7 7 7 6 6 5 5 4 5 5 6 5 4 4 4 4 3 3 3 3 0 1 0 1 2 3 3 3 2 4 3 4 1 1 2 4 5 5 4 5 5 6 7 6 5
20 20 20 20 20 19 17 15 17 17 17 16 17 18 15 15 14 14 14 14 13 13 11 9 9 7 6 7 7 6 6 4 5 4 4 7 7 8 8 8 8 8 8 7 5 5 5 5 4 5 6 5 6 5 4 4 3 3 3 2 3 1 0 1 1 0 4 6 2 1 3 5 5 3 5 5 5 6 7 7 5 6 6 5 4
20 20 18 20 21 21 20 17 17 18 17 17 18 17 13 18 17 16 15 15 13 13 13 9 8 6 6 5 5 4 3 5 5 5 5 6 7 7 9 8 9 8 8 8 7 6 5 5 4 5 6 6 5 5 5 5 5 4 5 3 3 4 1 1 1 1 4 3 5 3 2 2 3 3 5 2 3 4 7 6 6 6 5 5 6
22 23 22 23 23 21 19 18 18 18 18 18 18 18 17 16 16 16 13 13 13 14 14 12 10 11 9 9 9 9 8 8 10 11 7 7 8 8 8 9 9 8 8 8 7 6 6 5 4 4 5 6 6 5 5 4 4 4 5 5 4 3 4 3 2 1 1 2 4 3 5 3 3 2 4 2 1 3 5 5 7 6 5 6 5
19 20 19 19 20 21 21 20 20 19 19 17 17 17 17 16 16 17 15 13 13 14 15 12 11 11 13 13 12 11 11 9 9 8 7 6 6 8 8 8 9 9 8 8 7 7 6 6 5 5 5 5 5 5 5 6 6 5 3 4 6 4 5 4 4 3 1 1 1 0 1 1 5 5 3 3 4 1 4 4 5 5 6 6 6
19 20 21 21 21 22 23 23 21 20 19 17 17 16 17 17 17 17 14 14 13 14 15 14 13 12 12 12 11 10 11 10 9 7 5 5 7 8 7 7 8 8 9 8 8 7 7 6 6 5 5 5 5 6 6 6 5 3 5 5 5 5 6 7 5 5 5 2 1 0 0 2 1 3 4 7 5 5 3 1 0 1 3 7 8
20 19 21 22 23 22 20 21 21 20 18 18 17 16 16 16 16 16 15 15 14 16 15 15 13 13 12 11 10 10 10 8 6 6 7 6 6 6 8 8 8 8 8 8 8 8 7 6 6 5 5 5 5 5 5 5 6 5 4 4 5 4 5 6 7 7 4 5 3 0 2 1 1 2 3 3 4 4 2 4 3 1 1 3 5
20 22 21 21 21 21 21 21 20 19 18 17 17 15 15 14 16 16 16 14 14 16 16 15 14 12 12 11 13 10 8 6 7 8 8 7 7 7 8 8 8 7 7 8 8 8 7 6 6 7 6 6 5 6 5 5 5 5 5 6 5 5 3 6 7 6 6 3 4 5 3 1 2 1 1 2 2 2 5 4 5 6 5 5 4
19 19 20 19 19 20 19 19 19 17 16 17 16 16 15 16 17 18 17 15 16 17 17 16 14 13 13 13 13 12 11 10 9 9 8 8 9 8 9 9 8 8 7 7 8 8 8 7 7 7 6 5 6 5 6 6 5 5 5 5 6 6 5 4 3 4 6 4 4 5 6 6 6 4 4 2 3 2 2 1 1 4 8 5 7
19 18 19 18 16 17 17 19 19 17 16 17 16 16 16 16 17 18 17 16 16 16 17 16 14 14 13 14 14 12 12 11 13 13 12 12 11 9 8 7 7 7 7 7 7 8 7 7 7 7 6 6 6 6 5 5 5 4 5 6 6 5 5 5 4 4 4 4 4 5 6 5 4 4 5 5 6 4 5 3 3 2 1 4 2
18 18 16 16 17 18 19 19 18 17 18 19 19 17 17 16 18 19 18 17 17 16 17 17 15 14 14 14 13 11 11 11 12 12 12 11 10 8 8 9 8 7 8 8 8 9 8 7 8 8 7 6 6 5 5 5 5 5 6 6 6 6 6 6 6 5 5 5 6 5 5 5 5 4 5 5 3 5 5 3 3 1 2 2 2
19 18 19 18 18 18 18 18 18 17 18 19 19 18 16 16 18 19 19 17 16 16 17 17 17 16 15 14 13 11 11 11 10 11 11 10 9 10 10 9 9 10 10 10 9 9 8 8 8 8 7 6 6 6 6 5 5 6 6 7 6 6 5 6 6 5 4 4 4 6 4 5 5 4 5 5 5 4 2 4 3 0 1 3 0
17 18 19 20 19 18 18 18 18 17 19 19 18 18 17 17 18 19 18 17 17 17 16 18 16 16 14 13 12 11 11 10 9 9 10 10 9 9 8 8 9 9 10 9 8 9 9 8 8 8 8 8 6 6 6 6 5 5 6 7 6 5 6 6 5 5 6 4 4 5 5 4 5 5 4 5 5 6 5 5 5 3 1 1 1
17 18 19 19 19 17 16 17 18 17 19 18 19 18 18 18 19 20 20 19 18 18 17 18 16 15 15 14 14 13 10 9 8 6 7 9 9 10 9 9 9 8 8 8 8 9 9 9 9 9 8 8 7 7 7 6 6 6 6 6 7 4 6 6 6 6 6 5 5 4 4 6 5 4 4 5 5 5 5 4 5 5 5 3 1
18 18 18 19 17 18 17 18 17 18 18 19 19 19 21 19 19 20 19 18 18 18 18 17 16 15 15 15 14 13 12 12 11 11 11 9 9 9 9 9 8 8 8 8 9 8 9 9 9 9 9 8 7 7 7 6 6 7 7 7 7 6 6 7 6 6 6 5 4 5 6 6 5 4 3 3 5 3 5 6 6 7 6 5 4
22 22 20 19 20 21 19 18 19 20 20 20 20 19 18 18 20 20 18 19 18 17 17 15 15 15 15 15 15 15 14 14 12 12 10 9 9 9 8 7 9 9 8 8 9 10 9 9 9 9 9 8 9 8 8 7 7 7 7 7 7 7 7 5 6 7 6 5 5 4 4 5 4 4 5 4 4 5 5 6 6 6 7 7 6
17 16 16 16 17 19 19 19 20 20 20 20 20 18 16 16 18 20 21 21 20 16 15 13 14 12 12 15 15 14 13 12 11 11 10 10 11 11 11 10 7 7 8 8 9 9 9 9 9 9 9 9 9 9 8 8 8 7 7 7 6 7 7 7 6 6 6 6 6 6 5 6 5 5 5 4 4 4 6 6 6 5 6 6 7
15 16 17 18 19 20 21 20 20 20 19 18 18 16 18 18 18 18 18 17 17 17 16 15 15 13 12 12 12 12 12 12 12 11 11 12 11 11 11 10 10 7 8 9 10 10 10 10 10 10 10 10 9 9 9 9 8 8 7 7 7 7 8 8 7 6 5 6 6 7 7 7 6 5 6 5 6 5 5 6 6 6 6 7 7
17 17 17 18 18 18 19 18 19 18 16 16 17 19 19 17 18 18 19 18 19 18 17 15 14 14 14 15 14 13 14 12 12 11 11 11 10 10 10 11 8 8 9 10 11 12 12 11 11 10 11 10 10 10 9 8 8 9 8 8 7 8 9 8 7 7 6 6 8 8 8 8 6 6 7 7 6 6 5 6 5 6 7 6 7
19 19 17 17 17 18 18 16 14 14 15 17 17 16 17 17 17 18 18 18 19 18 17 16 15 15 16 16 16 14 13 12 13 13 13 12 11 11 11 10 11 11 10 11 12 11 11 12 11 11 11 11 11 11 10 9 9 9 9 7 8 9 9 9 7 8 8 7 8 9 9 8 7 8 8 8 8 7 6 6 6 7 7 7 6
20 19 17 17 17 18 18 18 18 18 17 17 16 16 17 19 18 17 18 18 18 18 17 15 15 15 16 15 14 14 13 14 15 13 14 13 12 11 10 11 12 11 10 11 11 11 12 12 11 11 11 11 11 11 10 10 10 11 11 10 10 10 11 11 10 11 10 9 8 9 10 9 7 8 9 9 8 8 7 7 8 7 7 7 7
19 18 17 17 16 15 15 16 16 16 16 17 17 17 17 16 17 16 19 19 18 16 15 15 15 16 15 14 13 13 14 14 15 13 15 14 13 12 11 12 12 11 12 11 11 12 11 11 12 11 11 11 11 11 11 11 12 12 12 12 11 11 11 11 12 11 11 10 11 10 11 10 9 10 10 9 8 7 8 8 8 8 7 8 7
16 17 16 14 14 15 16 17 17 16 16 17 17 17 16 17 17 18 18 18 17 15 16 16 16 17 15 15 15 14 14 15 15 13 14 14 13 12 11 12 11 12 12 11 11 10 11 11 12 12 12 12 13 13 12 12 12 12 13 12 12 11 11 12 12 12 11 12 12 13 13 11 10 11 10 9 9 10 9 8 9 8 8 7 5
18 17 15 16 17 16 16 16 16 16 17 17 17 16 16 16 18 18 17 17 17 16 16 16 16 16 15 17 16 15 16 17 16 14 15 14 13 13 12 11 11 12 12 12 12 11 11 13 13 13 13 13 12 12 13 14 14 13 12 12 12 12 12 12 12 12 12 12 12 13 13 11 11 12 12 11 10 11 10 10 10 9 8 6 7
19 18 17 16 14 17 18 18 17 17 17 16 17 17 16 16 16 16 16 16 16 16 16 16 16 17 16 17 17 17 16 16 16 15 14 13 14 14 14 13 12 13 13 12 13 13 12 13 14 13 13 13 13 13 13 13 13 12 12 12 12 12 12 12 12 13 13 12 13 12 12 11 12 13 13 12 11 10 10 12 12 11 9 7 7
17 17 18 19 19 19 18 18 17 17 16 15 16 16 16 16 17 16 15 15 14 15 16 17 16 16 16 17 17 16 15 15 14 14 14 14 14 14 14 13 12 13 13 13 14 14 13 12 13 13 13 12 12 12 12 12 12 13 12 13 13 13 13 13 12 12 12 12 13 13 12 12 13 12 13 12 11 11 10 10 10 9 8 8 9
17 18 18 19 18 17 18 18 18 17 17 17 16 16 15 14 15 15 15 16 15 15 15 16 16 16 16 15 14 13 13 13 14 14 14 15 14 14 14 13 13 13 12 13 13 13 13 13 12 12 13 11 11 12 11 12 13 14 13 14 14 14 14 13 13 12 12 12 12 12 12 12 14 16 18 16 14 13 10 11 11 9 10 10 9
18 17 16 17 18 19 19 18 17 18 18 17 17 17 17 17 16 16 16 15 14 15 15 15 16 16 15 14 14 13 13 13 14 15 15 15 14 14 14 14 15 15 14 13 13 13 13 13 13 13 12 11 11 10 14 20 17 14 14 13 12 13 13 13 13 12 12 12 13 12 13 18 18 18 18 19 19 18 18 15 12 11 11 11 11
18 18 18 16 16 16 16 17 18 19 19 18 17 17 16 16 15 16 16 15 15 15 16 16 17 16 15 15 14 14 14 15 15 15 14 15 16 14 14 14 14 14 15 14 13 14 13 13 14 14 13 12 11 12 19 18 20 21 15 13 13 12 12 12 12 12 12 13 12 13 12 14 15 15 17 20 20 20 20 20 21 18 15 14 12
18 19 16 14 13 13 14 17 18 18 17 16 15 15 15 16 15 15 15 14 15 16 16 16 16 15 14 15 14 14 15 15 15 16 16 15 15 14 14 14 14 14 14 13 14 15 14 13 13 13 14 13 13 16 19 19 20 21 18 14 12 11 10 11 11 12 12 11 12 12 11 10 11 14 15 15 17 20 21 22 22 22 20 20 19
18 17 15 15 16 16 16 17 16 17 17 17 16 15 16 16 15 14 13 14 15 15 16 16 15 15 15 15 14 14 15 14 15 15 14 13 14 15 15 15 15 14 12 13 15 14 14 14 13 14 14 15 14 18 19 19 19 20 21 17 11 11 11 11 11 12 12 12 11 11 11 10 11 17 15 14 13 15 19 22 22 22 22 21 21
16 15 15 15 13 12 14 16 17 17 18 17 16 17 16 15 15 14 16 15 15 15 15 16 15 15 15 15 15 15 15 15 14 14 13 14 14 16 15 14 12 11 13 14 14 15 14 14 14 14 15 14 15 16 19 20 19 20 20 17 13 13 12 12 12 12 12 13 13 12 12 12 12 11 11 13 13 14 13 13 14 14 15 19 21
11 10 11 11 12 12 12 12 12 13 13 13 13 13 12 13 14 15 15 15 15 15 15 15 15 15 15 15 15 15 15 15 15 14 14 15 16 15 14 14 13 13 14 15 15 15 15 15 15 15 14 13 13 18 18 20 20 20 20 17 13 12 11 12 12 12 13 13 13 13 13 13 13 12 11 12 12 13 12 12 13 14 16 17 17
10 12 11 11 12 13 13 13 10 9 9 10 11 10 11 13 13 14 14 15 15 15 15 14 15 15 16 15 15 15 15 14 14 15 15 16 16 16 16 14 13 12 12 12 12 12 14 14 15 15 15 15 15 18 19 19 21 20 19 12 12 13 13 13 12 12 13 12 12 13 13 13 14 13 14 17 15 12 12 14 15 15 14 15 17
7 11 11 10 11 12 11 8 7 8 9 10 9 10 11 11 12 13 13 14 14 14 14 15 15 16 16 15 15 15 15 15 15 15 16 16 16 15 14 12 13 13 13 13 14 14 14 14 14 14 15 16 15 15 18 19 19 19 14 10 11 11 12 13 13 13 12 12 12 13 13 13 13 13 15 16 17 15 13 15 15 15 14 14 18
6 6 6 6 6 6 7 9 9 9 9 7 8 9 9 10 12 11 12 13 14 15 13 14 15 15 15 15 15 16 16 15 15 16 16 15 15 13 13 12 14 14 14 15 14 12 12 13 14 15 15 15 15 12 15 16 18 18 17 13 11 11 13 13 13 12 11 12 13 18 16 14 14 14 15 17 17 14 13 15 15 15 16 18 20
11 10 9 7 6 5 5 5 6 5 2 5 10 11 10 11 11 12 12 13 14 14 14 13 13 14 15 15 15 16 16 16 16 16 15 15 15 14 13 11 12 12 13 11 10 10 11 11 12 14 15 15 12 9 13 16 18 18 16 11 11 11 12 12 11 12 12 12 12 12 17 17 16 16 17 16 17 15 14 15 15 15 18 20 21
12 11 9 9 9 9 10 9 8 3 1 2 4 8 11 11 11 11 12 14 15 14 12 11 12 13 14 15 14 16 16 16 16 15 14 14 12 11 12 13 12 11 12 11 10 10 12 11 10 10 10 11 11 7 10 17 19 20 21 14 11 11 12 12 11 12 12 11 11 11 12 16 19 20 19 17 16 18 16 15 14 15 17 21 16
12 11 10 11 10 10 10 9 6 6 5 4 3 5 6 6 8 10 13 14 12 10 10 10 11 12 13 15 14 15 17 15 15 15 14 13 12 12 12 12 12 11 11 11 12 11 10 10 9 9 8 7 8 8 10 18 19 21 22 20 12 13 12 11 12 12 11 11 10 10 9 12 18 20 19 18 17 16 16 15 15 15 16 19 17
12 12 10 10 11 11 11 11 8 7 5 4 4 4 2 4 5 8 11 8 6 7 8 9 11 12 13 14 14 14 15 14 13 13 12 11 10 11 11 12 10 10 12 12 11 10 10 9 8 8 8 7 8 14 9 16 20 22 22 24 14 13 13 12 12 11 10 9 10 9 10 5 6 7 5 7 11 12 13 9 14 19 21 21 18
13 13 11 10 10 10 9 8 8 8 6 4 3 2 1 1 4 8 4 3 5 6 8 9 10 11 12 13 12 14 13 10 11 12 12 12 10 11 11 10 11 11 11 11 11 10 9 8 7 7 6 7 7 10 17 14 19 21 22 22 21 16 16 14 11 11 9 7 4 3 2 7 6 8 8 9 9 10 7 9 16 19 20 21 15
11 10 9 9 8 7 7 6 7 8 8 7 4 3 1 2 5 4 4 5 6 7 7 9 9 10 11 11 12 12 12 11 13 12 12 11 11 10 10 10 10 10 10 10 9 8 8 8 7 6 5 6 4 2 2 4 7 14 13 15 16 12 6 1 2 3 2 3 3 3 5 10 11 12 11 11 12 11 10 13 14 16 16 15 11
9 9 8 7 7 6 6 7 7 8 7 7 6 4 3 4 4 2 4 6 6 7 7 8 9 9 10 9 10 10 12 11 11 12 11 11 10 10 10 9 9 9 9 10 9 8 9 8 7 7 5 3 3 4 4 5 6 10 10 10 9 9 11 6 5 4 2 2 4 6 8 8 8 9 10 10 9 10 11 11 13 14 13 8 9
8 7 7 7 7 8 8 8 9 9 8 7 6 5 6 5 4 4 5 6 7 7 8 9 8 8 9 9 9 9 10 10 11 10 11 11 12 11 11 9 10 10 10 9 9 8 8 7 7 6 5 4 4 5 5 5 6 7 5 6 8 7 6 7 5 3 4 5 5 5 6 7 7 7 6 5 6 7 12 14 14 13 8 8 9
7 6 5 6 6 6 5 5 5 6 6 6 7 6 5 6 5 5 4 6 6 8 8 7 8 8 8 8 10 9 8 7 8 8 8 9 9 9 10 10 10 10 9 8 8 8 7 7 7 6 6 5 5 5 5 5 5 6 6 6 7 6 5 5 3 2 3 2 3 3 4 4 3 6 4 4 5 6 7 7 6 7 7 7 8
6 5 6 6 6 4 4 4 4 5 6 7 7 7 7 8 7 6 2 4 5 7 8 8 8 8 8 8 8 10 10 7 4 3 4 5 6 8 10 10 10 9 8 8 8 8 8 8 7 7 7 6 5 4 4 5 5 6 6 5 5 5 4 4 4 2 2 2 2 3 3 4 5 6 7 7 6 6 5 6 7 7 8 8 10
5 4 4 4 4 5 4 4 4 4 5 7 7 7 8 8 7 6 1 3 5 5 6 7 7 7 8 7 8 8 8 9 9 11 10 8 6 4 1 2 1 1 7 10 9 8 8 6 8 10 10 6 4 6 4 2 5 5 6 6 5 5 4 4 3 2 2 3 5 7 8 7 7 5 5 6 6 7 7 6 7 7 7 7 8
2 4 4 4 4 3 4 4 4 4 5 6 6 6 7 7 7 6 2 2 3 5 6 7 7 7 7 8 7 8 8 9 9 10 10 10 14 15 10 4 1 5 5 4 7 6 8 9 9 4 2 8 9 7 9 10 8 9 8 8 7 6 5 5 5 5 4 6 5 5 3 3 5 5 6 6 7 6 7 8 8 9 8 8 8
3 5 4 4 3 3 4 5 6 3 4 4 4 6 7 7 7 5 2 3 2 4 5 6 6 6 8 9 9 8 8 8 8 9 9 11 9 13 18 17 12 9 11 17 17 16 12 11 15 9 7 14 15 14 12 9 8 7 9 10 10 10 9 8 7 5 5 6 5 5 3 3 3 3 4 5 5 6 7 8 8 9 9 9 9
Wind_Direction
182 181 178 179 181 180 175 168 175 177 177 178 178 180 180 179 176 180 177 175 177 177 180 176 175 173 175 182 186 190 192 198 195 193 182 183 179 176 177 177 175 172 175 175 175 177 181 168 173 165 148 164 156 182 194 202 222 188 207 72 110 48 38 10 35 98 104 71 61 84 90 178 170 157 172 166 175 174 169 166 181 184 196 195 196
181 183 184 180 182 183 180 172 172 177 181 179 182 183 180 178 178 177 173 178 181 182 181 182 181 181 177 183 176 181 189 193 190 192 190 186 179 177 178 179 176 176 176 179 182 182 188 171 186 175 165 180 182 174 182 197 186 222 111 58 32 123 141 219 190 84 32 130 124 89 78 49 183 160 165 189 183 178 178 175 176 186 194 194 190
184 185 185 186 184 184 184 180 177 181 180 181 182 180 180 180 178 174 178 177 181 181 180 185 181 176 175 179 175 176 194 191 185 173 179 179 182 180 179 177 177 180 180 180 179 190 192 178 185 178 175 172 156 168 173 195 191 185 157 149 141 29 130 235 190 125 145 117 96 91 126 117 81 34 258 215 191 186 181 188 180 190 194 190 185
184 186 185 185 185 186 186 182 182 180 181 181 179 180 180 182 180 176 179 178 178 181 183 180 176 166 163 161 166 162 178 186 194 175 140 162 184 181 180 178 178 181 184 182 182 187 193 194 180 173 177 176 164 170 176 199 197 174 166 156 129 132 40 115 37 164 128 125 126 162 181 131 150 197 190 219 198 188 187 196 186 195 190 177 164
182 184 185 184 185 187 187 182 179 181 182 181 181 181 182 182 181 178 178 180 177 177 177 169 162 150 141 132 131 119 111 168 184 210 163 172 170 185 186 181 179 181 183 183 181 190 195 196 187 176 173 179 167 168 178 195 203 184 166 155 160 150 172 139 16 69 130 170 137 108 61 95 204 213 164 246 185 189 212 196 192 196 180 173 182
182 185 186 184 185 184 185 180 179 183 184 183 183 183 181 181 178 177 178 178 177 175 172 170 171 168 160 160 168 175 180 183 196 198 188 175 182 188 183 182 181 182 183 181 182 184 192 198 196 180 179 177 176 174 181 185 209 184 178 173 189 193 149 109 76 344 159 151 155 157 165 172 183 213 103 195 191 224 216 201 193 195 179 180 183
189 189 187 184 183 182 184 184 181 182 186 181 181 182 180 177 175 175 176 177 174 173 172 171 173 178 181 182 183 183 183 197 197 195 190 173 168 182 187 186 183 180 184 183 182 182 187 196 198 197 182 182 183 168 176 189 200 193 169 159 185 160 124 131 156 188 19 335 67 63 157 137 148 129 190 124 145 272 216 201 202 198 185 181 187
186 188 188 188 186 184 184 185 183 183 179 179 182 180 177 175 173 174 173 173 174 173 174 175 177 182 184 188 187 190 193 192 189 191 183 159 174 180 180 190 188 185 180 184 183 183 183 192 199 196 188 190 181 183 185 191 198 192 174 178 171 168 154 149 172 169 151 215 125 157 76 70 149 115 138 161 156 154 211 290 34 218 207 196 193
185 188 189 188 188 189 184 184 186 179 175 179 181 180 178 174 172 172 172 171 173 174 176 178 178 181 186 185 192 197 194 188 181 177 187 173 175 181 181 188 190 190 185 182 184 183 186 190 192 197 193 190 186 186 195 182 192 190 155 152 171 181 171 166 150 189 173 179 115 21 65 49 26 75 123 102 135 138 203 178 173 68 183 239 221
189 191 191 190 188 187 185 184 180 180 179 177 176 176 175 172 173 172 172 173 173 177 177 178 179 178 183 190 192 190 185 174 173 182 193 186 182 186 185 186 190 190 191 186 182 185 187 187 191 197 199 187 184 191 193 188 192 193 175 175 174 168 189 163 170 175 181 170 167 164 131 98 66 52 48 87 52 104 167 197 182 166 187 234 205
189 190 191 192 188 186 182 182 183 179 177 174 174 175 174 174 174 175 176 174 175 177 177 178 178 180 187 190 192 188 182 175 175 187 190 194 191 187 188 191 188 190 187 190 187 184 187 188 192 198 198 187 187 185 196 193 189 184 181 167 171 165 171 168 153 170 168 160 167 174 172 170 172 171 193 186 141 132 79 249 205 190 188 200 222
186 187 190 188 185 186 183 184 183 178 173 176 176 173 174 176 175 177 176 176 178 179 179 179 180 184 188 189 192 192 182 182 184 187 189 195 195 185 187 182 193 190 188 187 192 189 185 191 193 192 196 193 191 191 194 195 178 170 168 171 179 175 165 162 160 180 175 155 181 189 189 178 175 164 190 167 163 183 152 194 192 209 254 231 235
184 185 183 186 187 185 185 185 181 178 177 177 176 175 175 176 178 177 180 179 179 179 180 181 182 185 187 190 193 190 190 189 189 189 189 190 190 183 175 188 185 187 197 191 195 190 186 189 192 193 197 196 190 188 197 191 174 171 174 175 174 176 179 171 169 191 180 161 188 201 188 176 190 196 153 168 161 139 153 173 258 200 200 226 229
183 182 186 187 186 186 185 183 183 180 178 178 176 176 175 178 179 180 183 181 179 179 182 183 187 187 187 189 190 189 193 192 192 192 192 191 186 188 184 185 186 194 192 198 193 189 190 193 192 195 196 192 186 190 194 191 178 179 177 178 186 188 176 176 180 189 200 184 169 170 203 189 213 180 177 149 152 135 145 184 198 279 132 214 266
182 183 187 188 186 182 182 184 184 182 180 179 178 178 176 178 179 183 181 183 181 183 183 187 189 188 187 189 189 190 193 195 197 196 192 189 188 188 189 184 189 194 195 198 188 189 190 189 192 194 197 196 187 186 194 192 186 182 183 186 186 183 183 178 186 180 196 197 183 182 191 197 216 202 171 193 163 173 168 180 162 198 285 13 159
184 188 189 189 187 180 179 184 185 184 182 182 180 178 178 180 181 184 182 181 182 184 187 189 189 188 187 186 189 190 191 194 197 196 197 196 191 189 188 191 194 192 195 186 195 188 188 189 190 196 196 197 194 188 188 191 189 185 189 186 191 186 182 189 196 187 199 197 188 197 182 211 211 210 196 207 196 191 192 170 167 162 175 247 318
189 189 189 186 185 185 183 183 185 184 184 184 183 181 181 179 181 183 184 181 183 185 187 189 188 186 188 188 187 189 190 192 197 198 196 196 194 195 191 194 192 192 189 190 191 192 190 187 190 193 194 197 196 194 192 192 188 190 190 192 196 190 186 195 193 196 208 193 191 187 195 201 215 203 206 213 221 212 207 192 182 179 170 165 201
192 191 187 184 185 186 185 183 185 186 185 185 184 184 182 181 180 181 181 185 187 185 187 187 187 188 188 189 189 190 192 196 197 199 197 192 200 199 196 189 196 194 188 189 191 192 191 189 189 191 193 195 199 198 196 193 186 196 197 197 198 185 192 197 197 198 204 198 202 199 198 206 220 203 209 207 196 204 211 201 197 192 168 186 187
190 187 185 186 187 188 187 185 185 186 186 187 185 180 181 183 183 182 184 185 186 187 186 187 187 190 191 191 190 190 194 196 198 198 195 199 201 201 201 200 193 189 187 187 189 193 191 192 191 193 192 196 199 202 199 196 189 194 199 201 197 190 194 200 202 195 203 190 204 211 210 219 215 216 217 217 219 186 210 211 210 193 194 187 184
188 186 188 188 189 187 187 186 184 186 187 186 182 180 181 183 182 186 186 183 184 187 186 187 189 189 190 190 192 193 193 194 195 194 198 202 203 202 202 198 197 185 191 189 189 192 193 193 194 193 194 196 198 203 200 200 195 199 196 199 199 193 200 205 205 203 198 196 200 210 214 216 219 218 222 217 216 214 202 209 208 197 207 196 177
185 187 188 188 189 189 189 188 188 186 183 180 180 183 184 181 184 184 182 183 186 189 187 189 186 190 188 190 192 192 194 194 195 198 202 204 203 202 202 203 188 192 188 190 191 193 194 196 194 195 195 196 198 200 200 199 200 204 201 201 196 194 203 210 203 206 207 198 204 209 215 219 210 212 223 224 219 216 208 210 212 198 205 198 180
186 186 186 186 187 188 189 186 184 181 183 184 185 184 181 183 184 184 184 186 187 187 189 188 188 190 191 192 193 192 193 193 196 198 202 203 202 201 200 195 198 200 190 192 194 194 194 195 196 197 198 198 199 200 198 195 201 205 206 201 201 197 203 209 203 210 208 207 204 211 218 217 208 215 218 221 219 217 209 213 217 206 210 205 201
186 184 185 185 184 184 184 183 182 184 184 185 183 184 185 185 183 184 185 189 188 189 189 188 190 191 195 194 191 192 191 195 198 200 204 205 204 203 197 198 202 202 198 197 196 195 195 195 197 198 199 200 200 201 199 197 201 204 205 205 203 202 204 205 205 211 209 205 207 213 219 212 206 217 223 225 220 220 212 214 220 211 215 213 204
182 182 184 184 182 179 180 184 183 182 184 186 187 189 187 184 183 183 189 189 189 189 186 187 190 195 195 192 192 193 193 196 200 202 206 207 205 205 200 202 204 202 201 204 201 200 197 198 201 201 200 202 201 202 200 201 203 203 206 208 206 206 208 210 210 210 208 204 209 213 219 211 206 214 223 224 223 221 218 218 222 220 217 219 210
179 182 182 176 175 178 184 185 185 184 185 187 190 189 186 185 184 187 190 188 188 185 186 189 191 193 191 192 194 193 196 198 202 203 207 207 208 208 205 206 204 204 204 203 206 202 202 201 204 205 203 203 203 202 202 204 206 206 207 208 209 209 211 213 215 213 207 208 210 214 217 208 206 215 223 223 220 220 222 220 224 223 219 220 215
178 182 175 177 182 182 182 186 187 186 187 189 190 190 189 188 191 188 186 185 187 186 188 188 190 191 193 194 194 193 196 199 201 203 205 205 207 209 208 209 206 207 205 205 203 202 203 205 207 208 206 206 205 203 203 205 206 207 208 211 211 211 212 214 217 217 213 210 214 217 218 208 207 212 221 220 218 220 221 224 227 227 221 212 215
180 178 181 181 179 181 185 186 186 187 188 189 190 190 190 191 191 190 189 187 186 186 187 188 189 192 194 196 195 197 197 197 199 201 202 204 206 208 208 210 207 209 207 206 206 204 205 206 209 207 208 207 206 204 205 207 208 207 208 210 213 214 215 215 218 218 217 216 217 220 220 213 211 215 220 220 218 219 219 225 225 227 221 210 218
180 182 179 182 185 184 183 184 185 187 187 188 190 191 191 190 190 190 188 187 188 188 187 188 189 193 197 198 198 197 196 197 198 199 202 204 206 207 208 210 208 210 210 208 207 207 208 207 209 209 211 207 206 207 208 208 208 208 208 210 212 214 217 218 219 220 220 220 219 221 222 218 217 218 219 223 215 218 218 226 228 225 221 213 220
182 184 184 185 181 182 183 183 185 184 185 186 187 191 192 192 190 189 189 189 185 186 189 190 191 195 199 198 196 195 196 196 197 199 203 205 206 207 207 207 208 210 212 212 211 209 209 211 212 211 212 208 206 208 208 208 208 210 209 212 211 214 215 219 222 222 221 221 223 223 224 222 219 220 220 221 219 214 212 221 226 217 219 216 221
183 185 186 186 186 183 183 182 182 185 186 185 186 189 191 190 191 189 190 187 181 187 188 191 194 197 196 195 194 194 194 194 196 200 203 205 207 207 207 208 209 210 211 211 212 211 210 210 213 215 213 210 210 211 212 208 206 207 210 213 214 215 216 218 222 225 227 224 224 224 226 224 221 220 221 222 224 221 218 218 219 211 215 214 218
184 186 186 188 189 188 182 181 184 187 187 186 187 188 188 189 190 189 188 185 181 186 190 192 197 196 195 193 192 195 192 195 198 200 202 204 206 207 208 210 210 209 210 210 210 212 211 211 212 214 214 212 214 216 213 207 209 209 208 211 214 217 216 219 221 223 227 228 229 227 230 227 224 224 225 223 223 223 223 224 226 219 212 209 215
187 188 184 178 182 184 186 187 188 188 187 186 185 185 186 191 188 189 187 184 185 188 191 194 196 194 194 193 195 194 195 198 197 201 202 203 204 206 210 211 210 210 210 209 211 213 212 212 213 215 216 215 217 218 213 209 209 210 209 211 214 220 219 219 221 223 227 230 232 232 230 230 226 223 225 226 227 227 226 226 228 227 224 219 216
187 186 179 177 177 182 187 190 188 188 189 191 186 183 189 189 187 187 184 186 188 189 191 194 194 194 194 194 194 195 197 198 201 202 203 202 204 209 211 211 212 211 208 210 214 212 213 213 214 215 217 218 220 216 212 209 209 209 210 211 216 216 220 223 221 223 227 228 231 234 236 231 232 225 224 226 225 229 231 232 231 232 232 228 227
187 183 177 178 176 178 185 188 189 189 189 189 187 190 192 187 185 183 187 188 187 190 191 193 194 195 195 193 194 195 197 200 199 200 200 202 205 211 212 212 213 210 212 215 215 215 214 213 215 217 219 220 221 218 208 208 208 209 209 206 220 217 219 224 224 224 226 228 229 231 234 237 235 230 225 224 228 230 230 231 236 237 238 239 238
182 179 176 172 175 177 180 186 191 189 186 184 189 193 187 185 184 187 189 189 190 190 190 191 193 194 194 194 194 195 197 198 197 197 199 203 207 211 210 211 209 210 212 214 214 214 215 214 215 218 223 223 225 217 206 207 207 207 208 202 219 221 224 225 226 227 228 228 230 230 234 238 238 234 229 223 225 229 231 234 233 233 234 237 236
172 169 168 168 172 176 179 188 184 174 182 185 188 182 180 187 186 188 189 192 191 192 192 190 192 193 194 192 192 194 197 197 196 197 199 204 206 206 208 207 208 212 216 217 220 220 219 217 216 217 221 227 228 214 206 205 205 207 202 203 216 223 226 229 229 228 230 232 232 232 234 239 240 239 234 223 222 224 230 235 236 238 237 237 240
159 163 167 170 171 173 175 162 158 172 176 188 179 176 180 181 186 192 190 192 193 196 194 191 192 192 192 191 191 192 194 196 195 197 201 204 206 207 208 202 208 212 213 214 217 216 218 217 216 215 219 226 232 215 203 204 203 203 192 210 215 222 228 232 234 232 232 233 233 231 233 240 242 242 235 223 223 215 234 237 239 242 241 242 245
82 82 93 108 118 128 142 157 165 176 183 173 167 168 173 180 188 189 190 195 197 202 196 191 193 191 190 190 191 191 193 194 195 198 202 205 206 206 206 199 207 211 215 217 217 219 220 219 218 218 217 222 229 219 196 200 199 196 193 204 213 218 228 231 236 238 237 237 235 232 232 237 242 246 236 225 221 207 230 238 241 245 248 248 251
65 75 74 70 80 101 102 106 125 134 165 177 172 170 172 185 188 191 193 196 203 203 198 193 191 189 189 189 190 192 193 194 196 199 201 203 203 204 202 198 208 211 219 220 218 221 223 223 223 223 220 222 229 214 185 191 196 195 196 209 211 221 228 231 234 239 239 241 243 238 234 235 242 247 241 230 222 207 227 235 238 242 248 252 253
62 60 70 73 73 71 64 61 56 30 333 96 165 175 180 185 191 190 194 203 206 204 197 189 186 188 188 189 190 191 193 194 196 199 200 202 201 200 200 200 205 208 214 216 216 219 223 225 224 225 223 220 222 215 184 191 192 195 194 201 211 218 228 230 232 237 240 241 242 245 240 234 237 244 247 240 231 213 223 235 237 241 247 255 263
51 54 51 58 57 63 67 62 48 31 26 32 102 161 195 194 187 189 202 207 204 193 185 182 182 185 188 189 190 191 193 195 195 196 197 198 196 199 198 199 203 205 212 215 214 216 220 225 221 218 219 212 201 202 193 189 194 194 198 199 213 216 222 226 230 235 236 241 240 239 246 238 232 236 241 246 245 234 228 238 242 244 246 254 264
46 44 48 49 45 41 37 33 30 30 30 31 58 80 133 181 188 212 217 206 180 182 176 173 180 185 188 190 191 192 193 193 193 191 193 196 196 195 196 197 199 202 207 213 212 216 220 223 218 210 209 206 193 195 192 198 193 196 198 201 208 216 213 220 229 235 238 241 241 237 245 288 343 354 326 286 270 266 260 260 260 263 267 269 268
38 34 32 45 45 41 38 30 19 20 16 16 44 76 73 155 196 229 221 183 187 176 173 176 180 184 188 188 189 187 189 191 191 189 188 192 189 190 193 192 196 201 205 209 212 213 217 220 215 211 201 199 197 205 196 196 200 197 199 202 208 212 213 216 227 235 235 256 279 301 37 44 1 347 331 316 299 289 277 248 255 266 275 281 291
40 39 35 40 42 38 36 28 20 12 5 2 24 355 298 271 255 242 210 201 182 184 176 175 181 185 184 187 185 186 187 188 187 184 186 187 186 189 189 191 193 196 198 204 207 207 209 211 207 196 196 197 198 177 53 29 190 209 210 209 218 229 15 17 341 303 14 2 348 360 323 314 311 302 301 295 286 278 268 272 272 270 274 281 280
40 29 29 34 35 35 36 30 19 15 9 355 354 349 302 282 271 262 211 198 193 178 178 184 183 182 182 182 181 182 184 184 183 180 183 185 185 182 187 189 188 193 197 201 205 197 205 202 187 185 156 94 56 70 75 49 100 157 166 176 189 201 238 239 268 255 257 309 351 326 321 330 331 323 313 307 299 293 291 280 276 277 278 269 273
43 31 33 45 47 46 38 25 13 6 359 354 348 3 358 311 302 270 220 201 183 180 186 189 182 177 177 172 175 180 180 179 175 181 184 184 181 182 185 185 186 193 194 199 197 193 197 189 182 178 148 112 78 83 84 87 92 102 116 145 156 170 186 196 216 279 315 323 339 353 351 346 338 338 334 329 323 312 305 301 297 291 281 276 277
48 40 53 49 58 54 44 36 18 354 354 348 348 354 345 325 327 307 232 188 184 182 186 180 178 176 170 170 170 173 171 167 169 175 182 181 180 181 184 182 187 189 193 197 189 184 186 180 179 157 119 112 97 89 96 94 88 98 100 112 111 102 120 125 122 73 51 46 8 5 343 330 331 320 320 288 290 304 312 315 316 309 298 292 287
34 37 56 56 55 56 41 38 21 349 352 353 350 349 342 337 330 334 302 177 175 180 178 177 173 165 166 167 167 157 151 145 134 136 151 166 171 184 183 185 185 186 187 191 182 186 183 179 166 128 128 116 106 95 104 120 113 110 105 103 104 105 101 107 102 58 67 37 32 16 27 32 13 10 3 0 350 340 323 311 309 307 305 299 295
39 31 55 66 55 38 21 29 3 344 359 358 346 340 340 338 331 327 14 153 165 169 165 164 161 158 160 154 149 145 129 116 96 81 67 49 8 356 12 83 1 296 198 178 183 184 182 169 144 150 140 124 127 136 153 118 106 100 118 120 113 116 115 101 110 130 74 38 37 32 22 15 17 3 343 334 327 327 326 313 299 298 298 302 301
53 62 59 53 41 45 16 0 338 2 12 359 342 336 332 332 330 327 357 114 155 149 153 162 160 155 145 134 127 124 123 119 117 110 102 75 57 55 33 22 345 344 35 58 150 154 151 125 110 78 126 156 159 151 137 124 116 103 95 103 117 117 115 110 118 101 98 77 60 62 32 358 341 352 346 341 327 319 317 324 324 318 314 309 304
66 67 44 37 11 13 15 359 335 358 36 351 344 334 334 333 332 327 8 70 110 137 141 146 144 144 142 134 129 120 114 114 117 115 105 102 83 48 39 37 48 46 85 92 83 79 92 126 133 126 75 89 112 124 136 138 125 122 118 114 111 114 113 119 126 97 46 66 54 51 26 4 344 297 281 294 315 328 327 323 322 319 313 312 308